Weather History for KVBT - February, 2012

Change the Weather History Date:

Thursday, February 23, 2012

  Actual Average Record
Temperature  
Mean Temperature 60 °F -  
Max Temperature 69 °F 53 °F 75 °F (1982)
Min Temperature 48 °F 31 °F 8 °F (1989)
Degree Days  
Heating Degree Days 6    
Growing Degree Days 10 (Base 50)    
Moisture  
Dew Point 35 °F    
Average Humidity 42    
Maximum Humidity 51    
Minimum Humidity 31    
Precipitation  
Precipitation 0.00 in - - ()
Sea Level Pressure  
Sea Level Pressure 29.39 in    
Wind  
Wind Speed 11 mph (WSW)    
Max Wind Speed 22 mph    
Max Gust Speed 32 mph    
Visibility 10 miles    
Events      
Averages and records for this station are not official NWS values.
T = Trace of Precipitation, MM = Missing Value Source: NWS Daily Summary

Daily Weather History Graph

Daily Weather History Graph

Search for Another Location

Airport or City:

Trip Planner

Search our weather history database for the weather conditions in past years. The results will help you decide how hot, cold, wet, or windy it might be!

Date:

Astronomy

Feb. 23, 2012 Rise Set
Actual Time 6:55 AM CST 6:05 PM CST
Civil Twilight 6:29 AM CST 6:31 PM CST
Nautical Twilight 5:59 AM CST 7:01 PM CST
Astronomical Twilight 5:29 AM CST 7:31 PM CST
Moon 7:27 AM CST (2/23) 8:06 PM CST (2/23)
Length of Visible Light 12h 01m
Length of Day
11h 09m
Waxing Crescent, 3% of the Moon is Illuminated
Feb 23
Waxing Crescent
Feb 29
First Quarter
Mar 8
Full
Mar 14
Last Quarter
Mar 22
New

Hourly Weather History & Observations

Time (CST) Temp. Windchill Dew Point Humidity Pressure Visibility Wind Dir Wind Speed Gust Speed Precip Events Conditions
12:15 AM 55.4 °F - 33.8 °F 44% 29.48 in 10.0 mi SSW 9.2 mph - N/A   Clear
12:35 AM 55.4 °F - 33.8 °F 44% 29.47 in 10.0 mi South 8.1 mph - N/A   Clear
12:55 AM 53.6 °F - 33.8 °F 47% 29.46 in 10.0 mi South 8.1 mph - N/A   Clear
1:15 AM 53.6 °F - 33.8 °F 47% 29.45 in 10.0 mi South 9.2 mph - N/A   Clear
1:35 AM 53.6 °F - 33.8 °F 47% 29.43 in 10.0 mi South 9.2 mph - N/A   Clear
1:55 AM 53.6 °F - 33.8 °F 47% 29.41 in 10.0 mi South 8.1 mph - N/A   Clear
2:15 AM 53.6 °F - 33.8 °F 47% 29.39 in 10.0 mi South 8.1 mph - N/A   Clear
2:35 AM 53.6 °F - 33.8 °F 47% 29.38 in 10.0 mi South 6.9 mph - N/A   Clear
2:55 AM 51.8 °F - 33.8 °F 50% 29.37 in 10.0 mi SSE 8.1 mph - N/A   Clear
3:15 AM 51.8 °F - 33.8 °F 50% 29.35 in 10.0 mi SSE 9.2 mph - N/A   Clear
3:35 AM 51.8 °F - 33.8 °F 50% 29.33 in 10.0 mi SSE 8.1 mph - N/A   Clear
3:55 AM 51.8 °F - 32.0 °F 47% 29.32 in 10.0 mi SSE 9.2 mph - N/A   Clear
4:15 AM 51.8 °F - 32.0 °F 47% 29.30 in 10.0 mi SSE 9.2 mph - N/A   Clear
4:35 AM 53.6 °F - 32.0 °F 44% 29.29 in 10.0 mi SSE 8.1 mph - N/A   Clear
4:55 AM 51.8 °F - 30.2 °F 44% 29.28 in 10.0 mi SSE 9.2 mph - N/A   Clear
5:15 AM 53.6 °F - 30.2 °F 41% 29.27 in 10.0 mi SSE 10.4 mph - N/A   Clear
5:35 AM 55.4 °F - 30.2 °F 38% 29.25 in 10.0 mi SSE 11.5 mph - N/A   Clear
5:55 AM 55.4 °F - 30.2 °F 38% 29.24 in 10.0 mi South 9.2 mph - N/A   Clear
6:15 AM 55.4 °F - 30.2 °F 38% 29.24 in 10.0 mi South 6.9 mph - N/A   Clear
6:35 AM 53.6 °F - 32.0 °F 44% 29.22 in 10.0 mi South 8.1 mph - N/A   Clear
6:55 AM 53.6 °F - 33.8 °F 47% 29.22 in 10.0 mi SSW 8.1 mph - N/A   Clear
7:15 AM 53.6 °F - 33.8 °F 47% 29.24 in 10.0 mi SSW 8.1 mph - N/A   Clear
7:35 AM 55.4 °F - 33.8 °F 44% 29.27 in 10.0 mi WSW 6.9 mph - N/A   Clear
7:55 AM 55.4 °F - 35.6 °F 47% 29.27 in 10.0 mi SW 6.9 mph - N/A   Clear
8:15 AM 57.2 °F - 35.6 °F 44% 29.27 in 10.0 mi SW 11.5 mph - N/A   Clear
8:55 AM 60.8 °F - 35.6 °F 39% 29.29 in 10.0 mi SW 13.8 mph - N/A   Clear
9:15 AM 60.8 °F - 35.6 °F 39% 29.29 in 10.0 mi SW 11.5 mph 18.4 mph N/A   Clear
9:35 AM 60.8 °F - 35.6 °F 39% 29.28 in 10.0 mi WSW 11.5 mph - N/A   Clear
9:55 AM 62.6 °F - 35.6 °F 37% 29.28 in 10.0 mi SW 11.5 mph - N/A   Clear
10:15 AM 62.6 °F - 35.6 °F 37% 29.29 in 10.0 mi SW 10.4 mph - N/A   Clear
10:35 AM 62.6 °F - 37.4 °F 39% 29.31 in 10.0 mi WSW 11.5 mph 17.3 mph N/A   Clear
10:55 AM 64.4 °F - 37.4 °F 37% 29.32 in 10.0 mi WSW 12.7 mph 17.3 mph N/A   Clear
11:15 AM 64.4 °F - 37.4 °F 37% 29.32 in 10.0 mi WSW 11.5 mph 17.3 mph N/A   Clear
11:35 AM 64.4 °F - 39.2 °F 40% 29.33 in 10.0 mi WSW 9.2 mph - N/A   Clear
11:55 AM 66.2 °F - 37.4 °F 35% 29.33 in 10.0 mi WSW 11.5 mph 19.6 mph N/A   Clear
12:15 PM 66.2 °F - 37.4 °F 35% 29.34 in 10.0 mi West 11.5 mph 17.3 mph N/A   Clear
12:35 PM 68.0 °F - 39.2 °F 35% 29.34 in 10.0 mi West 13.8 mph 18.4 mph N/A   Clear
12:55 PM 69.8 °F - 37.4 °F 31% 29.35 in 10.0 mi WNW 12.7 mph 20.7 mph N/A   Clear
1:15 PM 69.8 °F - 37.4 °F 31% 29.35 in 10.0 mi West 13.8 mph 18.4 mph N/A   Clear
1:35 PM 69.8 °F - 37.4 °F 31% 29.36 in 10.0 mi NW 17.3 mph 26.5 mph N/A   Clear
1:55 PM 66.2 °F - 39.2 °F 37% 29.37 in 10.0 mi NW 17.3 mph 23.0 mph N/A   Clear
2:15 PM 68.0 °F - 39.2 °F 35% 29.38 in 10.0 mi NW 15.0 mph 23.0 mph N/A   Clear
2:35 PM 68.0 °F - 39.2 °F 35% 29.39 in 10.0 mi NW 19.6 mph 24.2 mph N/A   Clear
2:55 PM 66.2 °F - 39.2 °F 37% 29.41 in 6.0 mi WNW 19.6 mph 26.5 mph N/A   Clear
3:15 PM 66.2 °F - 41.0 °F 40% 29.42 in 10.0 mi NW 13.8 mph 28.8 mph N/A   Clear
3:35 PM 64.4 °F - 39.2 °F 40% 29.43 in 10.0 mi WNW 18.4 mph 31.1 mph N/A   Clear
3:55 PM 64.4 °F - 41.0 °F 42% 29.44 in 8.0 mi WNW 21.9 mph 27.6 mph N/A   Clear
4:15 PM 64.4 °F - 39.2 °F 40% 29.46 in 9.0 mi WNW 19.6 mph 24.2 mph N/A   Clear
4:35 PM 62.6 °F - 39.2 °F 42% 29.47 in 9.0 mi WNW 17.3 mph 26.5 mph N/A   Clear
4:55 PM 62.6 °F - 37.4 °F 39% 29.48 in 9.0 mi WNW 17.3 mph 25.3 mph N/A   Partly Cloudy
5:15 PM 60.8 °F - 37.4 °F 42% 29.50 in 10.0 mi NW 15.0 mph 23.0 mph N/A   Scattered Clouds
5:35 PM 60.8 °F - 35.6 °F 39% 29.53 in 10.0 mi WNW 18.4 mph 28.8 mph N/A   Partly Cloudy
5:55 PM 57.2 °F - 37.4 °F 48% 29.55 in 10.0 mi NW 17.3 mph 26.5 mph N/A   Clear
6:15 PM 55.4 °F - 33.8 °F 44% 29.57 in 10.0 mi NW 16.1 mph 25.3 mph N/A   Clear
6:35 PM 55.4 °F - 33.8 °F 44% 29.60 in 10.0 mi NW 17.3 mph 25.3 mph N/A   Clear
6:55 PM 53.6 °F - 35.6 °F 51% 29.63 in 10.0 mi NW 16.1 mph 23.0 mph N/A   Clear
7:15 PM 53.6 °F - 35.6 °F 51% 29.65 in 10.0 mi NW 11.5 mph 20.7 mph N/A   Clear
7:35 PM 51.8 °F - 33.8 °F 50% 29.67 in 10.0 mi NNW 19.6 mph 28.8 mph N/A   Scattered Clouds
7:55 PM 50.0 °F - 28.4 °F 43% 29.68 in 10.0 mi NNW 15.0 mph 32.2 mph N/A   Mostly Cloudy
8:15 PM 50.0 °F - 28.4 °F 43% 29.68 in 10.0 mi NNW 19.6 mph 27.6 mph N/A   Mostly Cloudy
8:35 PM 48.2 °F - 28.4 °F 46% 29.70 in 10.0 mi NW 18.4 mph 31.1 mph N/A   Mostly Cloudy
8:55 PM 48.2 °F - 28.4 °F 46% 29.73 in 10.0 mi NW 17.3 mph 29.9 mph N/A   Scattered Clouds
9:15 PM 48.2 °F - 28.4 °F 46% 29.74 in 10.0 mi NNW 13.8 mph 29.9 mph N/A   Mostly Cloudy
9:35 PM 46.4 °F 39.0 °F 28.4 °F 50% 29.74 in 10.0 mi NNW 19.6 mph 26.5 mph N/A   Overcast
9:55 PM 46.4 °F 39.8 °F 28.4 °F 50% 29.76 in 10.0 mi NW 16.1 mph 24.2 mph N/A   Overcast
10:15 PM 46.4 °F 39.5 °F 28.4 °F 50% 29.79 in 10.0 mi NW 17.3 mph 24.2 mph N/A   Overcast
10:35 PM 44.6 °F 36.9 °F 24.8 °F 46% 29.77 in 10.0 mi NNW 18.4 mph 27.6 mph N/A   Overcast
10:55 PM 44.6 °F 38.4 °F 26.6 °F 49% 29.79 in 10.0 mi NNW 12.7 mph 23.0 mph N/A   Overcast
11:15 PM 44.6 °F 38.1 °F 26.6 °F 49% 29.79 in 10.0 mi NNW 13.8 mph 19.6 mph N/A   Overcast
11:35 PM 44.6 °F 38.1 °F 26.6 °F 49% 29.82 in 10.0 mi NW 13.8 mph 19.6 mph N/A   Overcast
11:55 PM 42.8 °F 35.1 °F 24.8 °F 49% 29.83 in 10.0 mi NW 16.1 mph 24.2 mph N/A   Overcast